This is the latest recevied weather packets stored in our database for station/object W6JCZ-13. If no packets are shown the sender has not sent any weather packets the latest 10 day(s).
| Time | Temp. | Humidity | Pressure | Rain* | Wind** | Luminosity | Snow |
|---|---|---|---|---|---|---|---|
| 1777321218 | 17.78° C | 58% | 1015.3 hPa | 0 mm | - | - | - |
| 1777320618 | 17.22° C | 59% | 1015.4 hPa | 0 mm | - | - | - |
| 1777320018 | 18.33° C | 59% | 1015.4 hPa | 0 mm | - | - | - |
| 1777319418 | 18.33° C | 58% | 1015.6 hPa | 0 mm | - | - | - |
| 1777318818 | 18.33° C | 62% | 1015.4 hPa | 0 mm | - | - | - |
| 1777318218 | 17.22° C | 63% | 1015.6 hPa | 0 mm | - | - | - |
| 1777317618 | 17.78° C | 61% | 1015.7 hPa | 0 mm | - | - | - |
| 1777317018 | 18.33° C | 62% | 1015.7 hPa | 0 mm | - | - | - |
| 1777316418 | 17.22° C | 65% | 1015.7 hPa | 0 mm | - | - | - |
| 1777315818 | 16.67° C | 66% | 1015.8 hPa | 0 mm | - | - | - |
| 1777315218 | 16.11° C | 68% | 1015.8 hPa | 0 mm | - | - | - |
| 1777314618 | 15.56° C | 68% | 1015.8 hPa | 0 mm | - | - | - |
| 1777314018 | 16.11° C | 68% | 1015.8 hPa | 0 mm | - | - | - |
| 1777313417 | 15.56° C | 69% | 1015.8 hPa | 0 mm | - | - | - |
| 1777312817 | 16.11° C | 68% | 1015.8 hPa | 0 mm | - | - | - |
| 1777312218 | 16.67° C | 68% | 1015.7 hPa | 0 mm | - | - | - |
| 1777311618 | 16.11° C | 72% | 1015.7 hPa | 0 mm | - | - | - |
| 1777311018 | 15° C | 74% | 1015.7 hPa | 0 mm | - | - | - |
| 1777310417 | 14.44° C | 73% | 1015.6 hPa | 0 mm | - | - | - |
| 1777309818 | 13.89° C | 73% | 1015.7 hPa | 0 mm | - | - | - |
| 1777309217 | 13.89° C | 75% | 1015.5 hPa | 0 mm | - | - | - |
| 1777308617 | 13.89° C | 75% | 1015.5 hPa | 0 mm | - | - | - |
| 1777308017 | 13.33° C | 76% | 1015.5 hPa | 0 mm | - | - | - |
| 1777307417 | 13.33° C | 76% | 1015.4 hPa | 0 mm | - | - | - |
| 1777306817 | 12.78° C | 79% | 1015.3 hPa | 0 mm | - | - | - |
* Rain latest hour (hover to see other rain measurements)
** Current wind speed in m/s (hover to see current wind gust speed)